Weather History for Breckenridge, TX

Change the Weather History Date:

Saturday, September 21, 2013

  Actual Average (KABI) Record (KABI)
Temperature  
Mean Temperature 70 °F 74 °F  
Max Temperature 82 °F 85 °F 101 °F (1998)
Min Temperature 58 °F 62 °F 42 °F (1983)
Degree Days  
Heating Degree Days 0 1  
Month to date heating degree days 2  
Since 1 July heating degree days 2  
Cooling Degree Days 5 9  
Month to date cooling degree days 256  
Year to date cooling degree days 2201  
Growing Degree Days 20 (Base 50)    
Moisture  
Dew Point 53 °F    
Average Humidity 60    
Maximum Humidity 93    
Minimum Humidity 27    
Precipitation  
Precipitation 0.02 in 0.07 in 1.72 in (1900)
Month to date precipitation 1.58  
Year to date precipitation 18.54  
Sea Level Pressure  
Sea Level Pressure 29.99 in    
Wind  
Wind Speed 6 mph (NNE)    
Max Wind Speed 13 mph    
Max Gust Speed 17 mph    
Visibility 10 miles    
Events      
T = Trace of Precipitation, MM = Missing Value Source: NWS Daily Summary

Daily Weather History Graph

Daily Weather History Graph

Search for Another Location

Airport:

Trip Planner

Search our weather history database for the weather conditions in past years. The results will help you decide how hot, cold, wet, or windy it might be!

Date:

Astronomy

Sep. 21, 2013 Rise Set
Actual Time 7:23 AM CDT 7:33 PM CDT
Civil Twilight 6:58 AM CDT 7:57 PM CDT
Nautical Twilight 6:29 AM CDT 8:26 PM CDT
Astronomical Twilight 6:00 AM CDT 8:55 PM CDT
Moon 8:56 PM CDT (9/21) 9:33 AM CDT (9/21)
Length of Visible Light 12h 59m
Length of Day
12h 09m
Waning Gibbous, 94% of the Moon is Illuminated
Sep 21
Waning Gibbous
Sep 26
Last Quarter
Oct 4
New
Oct 11
First Quarter
Oct 18
Full

Hourly Weather History & Observations

Time (CDT) Temp. Dew Point Humidity Pressure Visibility Wind Dir Wind Speed Gust Speed Precip Events Conditions
12:15 AM 67.1 °F 63.9 °F 89% 30.02 in 10.0 mi NNE 5.8 mph - N/A   Overcast
12:35 AM 66.6 °F 63.7 °F 90% 30.02 in 10.0 mi North 5.8 mph - N/A   Overcast
12:55 AM 66.4 °F 62.6 °F 88% 30.01 in 10.0 mi North 8.1 mph - 0.01 in   Mostly Cloudy
1:15 AM 66.2 °F 61.0 °F 83% 30.01 in 10.0 mi NNE 8.1 mph - N/A   Scattered Clouds
1:35 AM 65.3 °F 60.8 °F 85% 30.01 in 10.0 mi NNE 6.9 mph - N/A   Scattered Clouds
1:55 AM 64.9 °F 59.2 °F 82% 30.01 in 10.0 mi NNE 6.9 mph - N/A   Clear
2:15 AM 64.4 °F 58.5 °F 81% 30.02 in 10.0 mi North 6.9 mph - N/A   Clear
2:35 AM 63.9 °F 58.5 °F 83% 30.02 in 10.0 mi North 5.8 mph - N/A   Clear
2:55 AM 63.5 °F 58.3 °F 83% 30.02 in 10.0 mi North 4.6 mph - N/A   Clear
3:15 AM 63.0 °F 58.1 °F 84% 30.02 in 10.0 mi North 4.6 mph - N/A   Clear
3:35 AM 62.8 °F 58.1 °F 85% 30.02 in 10.0 mi North 4.6 mph - N/A   Clear
3:55 AM 62.1 °F 57.9 °F 86% 30.01 in 10.0 mi North 5.8 mph - N/A   Clear
4:15 AM 61.7 °F 58.1 °F 88% 30.01 in 10.0 mi North 3.5 mph - N/A   Clear
4:35 AM 61.3 °F 58.1 °F 89% 30.01 in 10.0 mi North 3.5 mph - N/A   Clear
4:55 AM 61.0 °F 58.1 °F 90% 30.01 in 10.0 mi North 4.6 mph - N/A   Clear
5:15 AM 60.8 °F 57.9 °F 90% 30.01 in 10.0 mi North 4.6 mph - N/A   Clear
5:35 AM 60.3 °F 57.6 °F 91% 30.02 in 10.0 mi North 4.6 mph - N/A   Clear
5:55 AM 59.9 °F 57.4 °F 91% 30.02 in 10.0 mi North 5.8 mph - N/A   Clear
6:15 AM 59.5 °F 57.2 °F 92% 30.02 in 10.0 mi North 4.6 mph - N/A   Clear
6:35 AM 59.4 °F 57.0 °F 92% 30.03 in 10.0 mi Calm Calm - N/A   Clear
6:55 AM 59.2 °F 57.0 °F 93% 30.03 in 10.0 mi North 3.5 mph - N/A   Clear
7:15 AM 59.0 °F 56.7 °F 92% 30.04 in 10.0 mi North 4.6 mph - N/A   Clear
7:35 AM 58.6 °F 56.3 °F 92% 30.04 in 10.0 mi North 4.6 mph - N/A   Clear
7:55 AM 58.6 °F 56.5 °F 93% 30.04 in 10.0 mi North 3.5 mph - N/A   Clear
8:15 AM 59.7 °F 56.7 °F 90% 30.04 in 10.0 mi North 4.6 mph - N/A   Clear
8:35 AM 61.2 °F 56.1 °F 83% 30.05 in 10.0 mi Calm Calm - N/A   Clear
8:55 AM 62.6 °F 54.7 °F 75% 30.05 in 10.0 mi North 5.8 mph - N/A   Clear
9:15 AM 64.6 °F 54.1 °F 69% 30.06 in 10.0 mi NNE 6.9 mph - N/A   Clear
9:35 AM 66.4 °F 53.6 °F 63% 30.06 in 10.0 mi NNE 9.2 mph - N/A   Clear
9:55 AM 67.6 °F 52.3 °F 58% 30.06 in 10.0 mi NNE 8.1 mph - N/A   Clear
10:15 AM 69.3 °F 51.8 °F 54% 30.07 in 10.0 mi NE 11.5 mph - N/A   Clear
10:35 AM 70.3 °F 51.1 °F 50% 30.06 in 10.0 mi NNE 9.2 mph - N/A   Clear
10:55 AM 71.1 °F 50.4 °F 48% 30.06 in 10.0 mi NNE 12.7 mph - N/A   Clear
11:15 AM 71.8 °F 49.6 °F 45% 30.05 in 10.0 mi NE 9.2 mph - N/A   Clear
11:35 AM 72.7 °F 50.0 °F 45% 30.05 in 10.0 mi NE 6.9 mph - N/A   Clear
11:55 AM 73.4 °F 49.6 °F 43% 30.05 in 10.0 mi NE 10.4 mph - N/A   Clear
12:15 PM 74.7 °F 49.1 °F 40% 30.04 in 10.0 mi NNE 5.8 mph - 0.01 in   Clear
12:35 PM 75.2 °F 50.5 °F 42% 30.03 in 10.0 mi North 3.5 mph - 0.01 in   Clear
12:55 PM 75.6 °F 48.6 °F 38% 30.03 in 10.0 mi North 6.9 mph - 0.01 in   Clear
1:15 PM 77.0 °F 46.8 °F 34% 30.02 in 10.0 mi North 9.2 mph - N/A   Clear
1:35 PM 77.2 °F 45.7 °F 33% 30.02 in 10.0 mi North 8.1 mph 17.3 mph N/A   Clear
1:55 PM 78.1 °F 44.8 °F 31% 30.00 in 10.0 mi North 8.1 mph - N/A   Clear
2:15 PM 79.5 °F 44.6 °F 29% 29.99 in 10.0 mi NNE 5.8 mph - N/A   Clear
2:35 PM 79.5 °F 44.6 °F 29% 29.98 in 10.0 mi NNE 3.5 mph - N/A   Clear
2:55 PM 80.4 °F 45.7 °F 29% 29.97 in 10.0 mi NNE 6.9 mph - N/A   Clear
3:15 PM 80.8 °F 45.3 °F 29% 29.96 in 10.0 mi NE 5.8 mph - N/A   Clear
3:35 PM 81.1 °F 46.4 °F 29% 29.95 in 10.0 mi NE 5.8 mph - N/A   Clear
3:55 PM 81.3 °F 46.2 °F 29% 29.95 in 10.0 mi NNE 6.9 mph - N/A   Clear
4:15 PM 81.9 °F 45.1 °F 27% 29.94 in 10.0 mi NNE 9.2 mph - N/A   Clear
4:35 PM 82.0 °F 45.3 °F 27% 29.94 in 10.0 mi NE 8.1 mph - N/A   Clear
4:55 PM 82.2 °F 45.1 °F 27% 29.94 in 10.0 mi NE 10.4 mph - N/A   Clear
5:15 PM 81.9 °F 45.1 °F 27% 29.93 in 10.0 mi North 5.8 mph 17.3 mph N/A   Clear
5:35 PM 81.5 °F 45.3 °F 28% 29.93 in 10.0 mi North - - N/A   Clear
5:55 PM 81.5 °F 45.7 °F 28% 29.93 in 10.0 mi NNE 8.1 mph - N/A   Clear
6:15 PM 81.0 °F 46.2 °F 29% 29.93 in 10.0 mi NE 8.1 mph - N/A   Clear
6:35 PM 80.2 °F 46.4 °F 30% 29.92 in 10.0 mi ENE 6.9 mph - N/A   Clear
6:55 PM 79.2 °F 46.8 °F 32% 29.92 in 10.0 mi NE 4.6 mph - N/A   Clear
7:15 PM 77.5 °F 48.2 °F 35% 29.92 in 10.0 mi NE 5.8 mph - N/A   Clear
7:35 PM 76.1 °F 48.6 °F 38% 29.92 in 7.0 mi NE 3.5 mph - N/A   Clear
7:55 PM 74.8 °F 49.1 °F 40% 29.92 in 7.0 mi NE 4.6 mph - N/A   Clear
8:15 PM 73.8 °F 49.1 °F 42% 29.93 in 10.0 mi NE 5.8 mph - N/A   Clear
8:35 PM 72.7 °F 50.0 °F 45% 29.93 in 10.0 mi Calm Calm - N/A   Clear
8:55 PM 72.0 °F 50.0 °F 46% 29.93 in 10.0 mi NE 4.6 mph - N/A   Clear
9:15 PM 69.6 °F 52.2 °F 54% 29.93 in 10.0 mi Calm Calm - N/A   Clear
9:35 PM 68.5 °F 52.9 °F 57% 29.94 in 10.0 mi Calm Calm - N/A   Clear
9:55 PM 68.5 °F 53.8 °F 59% 29.94 in 10.0 mi Calm Calm - N/A   Clear
10:15 PM 67.5 °F 53.1 °F 60% 29.94 in 10.0 mi Calm Calm - N/A   Clear
10:35 PM 66.2 °F 54.1 °F 65% 29.93 in 10.0 mi Calm Calm - N/A   Clear
10:55 PM 66.2 °F 54.0 °F 65% 29.93 in 10.0 mi Calm Calm - N/A   Clear
11:15 PM 64.2 °F 53.8 °F 69% 29.93 in 10.0 mi Calm Calm - N/A   Clear
11:35 PM 63.7 °F 54.1 °F 71% 29.94 in 10.0 mi SSE 3.5 mph - N/A   Clear
11:55 PM 63.5 °F 54.0 °F 71% 29.94 in 10.0 mi Calm Calm - N/A   Clear